Time,TemperatureF,DewpointF,PressureIn,WindDirection,WindDirectionDegrees,WindSpeedMPH,WindSpeedGustMPH,Humidity,HourlyPrecipIn,Conditions,Clouds,dailyrainin,SoftwareType,DateUTC
2013-12-14 00:01:00,27.3,0.7,30.18,SW,220,0.0,0.0,31,0.00,,---,0.00,VWS V14.01,2013-12-14 05:01:00,
2013-12-14 00:06:00,27.5,0.8,30.18,SW,220,0.0,0.0,31,0.00,,---,0.00,VWS V14.01,2013-12-14 05:06:00,
2013-12-14 00:11:00,27.3,0.7,30.18,SW,220,0.0,0.0,31,0.00,,---,0.00,VWS V14.01,2013-12-14 05:11:00,
2013-12-14 00:16:00,27.1,0.5,30.18,SW,220,0.0,0.0,31,0.00,,---,0.00,VWS V14.01,2013-12-14 05:16:00,
2013-12-14 00:21:00,27.1,0.5,30.18,SW,220,0.0,0.0,31,0.00,,---,0.00,VWS V14.01,2013-12-14 05:21:00,
2013-12-14 00:26:00,27.1,1.2,30.18,SW,220,0.0,0.0,32,0.00,,---,0.00,VWS V14.01,2013-12-14 05:26:00,
2013-12-14 00:31:00,27.3,1.4,30.18,SW,220,0.0,0.0,32,0.00,,---,0.00,VWS V14.01,2013-12-14 05:31:00,
2013-12-14 00:36:00,27.1,1.2,30.18,SW,220,0.0,0.0,32,0.00,,---,0.00,VWS V14.01,2013-12-14 05:36:00,
2013-12-14 00:41:00,27.5,1.5,30.18,SW,220,0.0,0.0,32,0.00,,---,0.00,VWS V14.01,2013-12-14 05:41:00,
2013-12-14 00:46:00,27.5,1.5,30.18,SW,220,0.0,0.0,32,0.00,,---,0.00,VWS V14.01,2013-12-14 05:46:00,
2013-12-14 00:51:00,27.7,1.7,30.18,SW,220,0.0,0.0,32,0.00,,---,0.00,VWS V14.01,2013-12-14 05:51:00,
2013-12-14 00:56:00,27.7,1.7,30.18,SW,220,0.0,0.0,32,0.00,,---,0.00,VWS V14.01,2013-12-14 05:56:00,
2013-12-14 01:01:00,27.7,1.7,30.18,SW,220,0.0,0.0,32,0.00,,---,0.00,VWS V14.01,2013-12-14 06:01:00,
2013-12-14 01:06:00,27.7,1.7,30.18,SW,220,0.0,0.0,32,0.00,,---,0.00,VWS V14.01,2013-12-14 06:06:00,
2013-12-14 01:11:00,27.7,1.7,30.18,SW,220,0.0,0.0,32,0.00,,---,0.00,VWS V14.01,2013-12-14 06:11:00,
2013-12-14 01:17:00,27.5,1.5,30.18,SW,220,0.0,0.0,32,0.00,,---,0.00,VWS V14.01,2013-12-14 06:17:00,
2013-12-14 01:22:00,27.5,1.5,30.18,SW,220,0.0,0.0,32,0.00,,---,0.00,VWS V14.01,2013-12-14 06:22:00,
2013-12-14 01:27:00,27.7,1.7,30.18,SW,220,0.0,0.0,32,0.00,,---,0.00,VWS V14.01,2013-12-14 06:27:00,
2013-12-14 01:32:00,27.7,2.3,30.18,SW,220,0.0,0.0,33,0.00,,---,0.00,VWS V14.01,2013-12-14 06:32:00,
2013-12-14 01:37:00,27.7,2.3,30.18,SW,220,0.0,0.0,33,0.00,,---,0.00,VWS V14.01,2013-12-14 06:37:00,
2013-12-14 01:42:00,27.7,2.3,30.18,SW,220,0.0,0.0,33,0.00,,---,0.00,VWS V14.01,2013-12-14 06:42:00,
2013-12-14 01:47:00,27.7,2.3,30.18,SW,220,0.0,0.0,33,0.00,,---,0.00,VWS V14.01,2013-12-14 06:47:00,
2013-12-14 01:52:00,27.7,2.3,30.18,SW,220,0.0,0.0,33,0.00,,---,0.00,VWS V14.01,2013-12-14 06:52:00,
2013-12-14 01:57:00,27.9,2.5,30.18,SW,220,0.0,0.0,33,0.00,,---,0.00,VWS V14.01,2013-12-14 06:57:00,
2013-12-14 02:02:00,27.7,3.6,30.18,SW,220,0.0,0.0,35,0.00,,---,0.00,VWS V14.01,2013-12-14 07:02:00,
2013-12-14 02:07:00,27.7,3.6,30.18,SW,220,0.0,0.0,35,0.00,,---,0.00,VWS V14.01,2013-12-14 07:07:00,
2013-12-14 02:12:00,27.9,3.8,30.18,SW,220,0.0,0.0,35,0.00,,---,0.00,VWS V14.01,2013-12-14 07:12:00,
2013-12-14 02:17:00,27.7,3.6,30.18,SW,220,0.0,0.0,35,0.00,,---,0.00,VWS V14.01,2013-12-14 07:17:00,
2013-12-14 02:22:00,28.0,3.9,30.18,SW,220,0.0,0.0,35,0.00,,---,0.00,VWS V14.01,2013-12-14 07:22:00,
2013-12-14 02:27:00,28.0,3.9,30.18,SW,220,0.0,0.0,35,0.00,,---,0.00,VWS V14.01,2013-12-14 07:27:00,
2013-12-14 02:32:00,28.2,4.1,30.18,SW,220,0.0,0.0,35,0.00,,---,0.00,VWS V14.01,2013-12-14 07:32:00,
2013-12-14 02:37:00,28.4,3.6,30.18,SW,220,0.0,0.0,34,0.00,,---,0.00,VWS V14.01,2013-12-14 07:37:00,
2013-12-14 02:42:00,28.4,3.6,30.18,SW,220,0.0,0.0,34,0.00,,---,0.00,VWS V14.01,2013-12-14 07:42:00,
2013-12-14 02:47:00,28.4,3.6,30.18,SW,220,0.0,0.0,34,0.00,,---,0.00,VWS V14.01,2013-12-14 07:47:00,
2013-12-14 02:52:00,28.6,3.8,30.18,SW,220,0.0,0.0,34,0.00,,---,0.00,VWS V14.01,2013-12-14 07:52:00,
2013-12-14 02:57:00,28.6,3.8,30.18,SW,220,0.0,0.0,34,0.00,,---,0.00,VWS V14.01,2013-12-14 07:57:00,
2013-12-14 03:02:00,28.4,4.2,30.21,SW,220,0.0,0.0,35,0.00,,---,0.00,VWS V14.01,2013-12-14 08:02:00,
2013-12-14 03:07:00,28.6,4.4,30.21,SW,220,0.0,0.0,35,0.00,,---,0.00,VWS V14.01,2013-12-14 08:07:00,
2013-12-14 03:12:00,28.6,4.4,30.21,SW,220,0.0,0.0,35,0.00,,---,0.00,VWS V14.01,2013-12-14 08:12:00,
2013-12-14 03:17:00,28.6,4.4,30.21,SW,220,0.0,0.0,35,0.00,,---,0.00,VWS V14.01,2013-12-14 08:17:00,
2013-12-14 03:22:00,28.6,4.4,30.21,SW,220,0.0,0.0,35,0.00,,---,0.00,VWS V14.01,2013-12-14 08:22:00,
2013-12-14 03:27:00,28.6,4.4,30.21,SW,220,0.0,0.0,35,0.00,,---,0.00,VWS V14.01,2013-12-14 08:27:00,
2013-12-14 03:32:00,28.8,4.6,30.21,SW,220,0.0,0.0,35,0.00,,---,0.00,VWS V14.01,2013-12-14 08:32:00,
2013-12-14 03:37:00,28.8,4.6,30.21,SW,220,0.0,0.0,35,0.00,,---,0.00,VWS V14.01,2013-12-14 08:37:00,
2013-12-14 03:42:00,28.8,4.6,30.21,SW,220,0.0,0.0,35,0.00,,---,0.00,VWS V14.01,2013-12-14 08:42:00,
2013-12-14 03:47:00,28.6,4.4,30.18,SW,220,0.0,0.0,35,0.00,,---,0.00,VWS V14.01,2013-12-14 08:47:00,
2013-12-14 03:52:00,28.6,5.0,30.18,SW,220,0.0,0.0,36,0.00,,---,0.00,VWS V14.01,2013-12-14 08:52:00,
2013-12-14 03:57:00,28.6,5.0,30.18,SW,220,0.0,0.0,36,0.00,,---,0.00,VWS V14.01,2013-12-14 08:57:00,
2013-12-14 04:02:00,28.8,5.2,30.21,SW,220,0.0,0.0,36,0.00,,---,0.00,VWS V14.01,2013-12-14 09:02:00,
2013-12-14 04:07:00,29.1,5.5,30.21,SW,220,0.0,0.0,36,0.00,,---,0.00,VWS V14.01,2013-12-14 09:07:00,
2013-12-14 04:12:00,29.1,6.1,30.21,SW,220,0.0,0.0,37,0.00,,---,0.00,VWS V14.01,2013-12-14 09:12:00,
2013-12-14 04:17:00,28.9,5.3,30.18,SW,220,0.0,0.0,36,0.00,,---,0.00,VWS V14.01,2013-12-14 09:17:00,
2013-12-14 04:22:00,28.9,5.9,30.18,SW,220,0.0,0.0,37,0.00,,---,0.00,VWS V14.01,2013-12-14 09:22:00,
2013-12-14 04:27:00,28.8,6.9,30.18,SW,220,0.0,0.0,39,0.00,,---,0.00,VWS V14.01,2013-12-14 09:27:00,
2013-12-14 04:32:00,28.9,7.1,30.18,SW,220,0.0,0.0,39,0.00,,---,0.00,VWS V14.01,2013-12-14 09:32:00,
2013-12-14 04:37:00,29.1,7.3,30.18,SW,220,0.0,0.0,39,0.00,,---,0.00,VWS V14.01,2013-12-14 09:37:00,
2013-12-14 04:42:00,29.3,6.9,30.18,SW,220,0.0,0.0,38,0.00,,---,0.00,VWS V14.01,2013-12-14 09:42:00,
2013-12-14 04:47:00,29.3,7.4,30.18,SW,220,0.0,0.0,39,0.00,,---,0.00,VWS V14.01,2013-12-14 09:47:00,
2013-12-14 04:52:00,29.3,8.0,30.18,SW,220,0.0,0.0,40,0.00,,---,0.00,VWS V14.01,2013-12-14 09:52:00,
2013-12-14 04:57:00,28.9,8.2,30.18,SW,220,0.0,0.0,41,0.00,,---,0.00,VWS V14.01,2013-12-14 09:57:00,
2013-12-14 05:02:00,28.8,8.6,30.21,SW,220,0.0,0.0,42,0.00,,---,0.00,VWS V14.01,2013-12-14 10:02:00,
2013-12-14 05:07:00,28.6,8.9,30.21,SW,220,0.0,0.0,43,0.00,,---,0.00,VWS V14.01,2013-12-14 10:07:00,
2013-12-14 05:12:00,28.8,9.1,30.21,SW,220,0.0,0.0,43,0.00,,---,0.00,VWS V14.01,2013-12-14 10:12:00,
2013-12-14 05:17:00,29.1,9.4,30.21,SW,220,0.0,0.0,43,0.00,,---,0.00,VWS V14.01,2013-12-14 10:17:00,
2013-12-14 05:22:00,29.3,9.1,30.21,SW,220,0.0,0.0,42,0.00,,---,0.00,VWS V14.01,2013-12-14 10:22:00,
2013-12-14 05:27:00,29.3,9.1,30.21,SW,220,0.0,0.0,42,0.00,,---,0.00,VWS V14.01,2013-12-14 10:27:00,
2013-12-14 05:32:00,29.5,9.2,30.21,SW,220,0.0,0.0,42,0.00,,---,0.00,VWS V14.01,2013-12-14 10:32:00,
2013-12-14 05:37:00,29.5,9.2,30.21,SW,220,0.0,0.0,42,0.00,,---,0.00,VWS V14.01,2013-12-14 10:37:00,
2013-12-14 05:42:00,29.5,9.2,30.21,SW,220,0.0,0.0,42,0.00,,---,0.00,VWS V14.01,2013-12-14 10:42:00,
2013-12-14 05:47:00,29.7,9.4,30.21,SW,220,0.0,0.0,42,0.00,,---,0.00,VWS V14.01,2013-12-14 10:47:00,
2013-12-14 05:52:00,29.8,9.6,30.21,SW,220,0.0,0.0,42,0.00,,---,0.00,VWS V14.01,2013-12-14 10:52:00,
2013-12-14 05:57:00,29.8,9.6,30.21,SW,220,0.0,0.0,42,0.00,,---,0.00,VWS V14.01,2013-12-14 10:57:00,
2013-12-14 06:02:00,30.0,9.7,30.21,SW,220,0.0,0.0,42,0.00,,---,0.00,VWS V14.01,2013-12-14 11:02:00,
2013-12-14 06:07:00,30.0,9.7,30.21,SW,220,0.0,0.0,42,0.00,,---,0.00,VWS V14.01,2013-12-14 11:07:00,
2013-12-14 06:12:00,30.0,9.7,30.21,SW,220,0.0,0.0,42,0.00,,---,0.00,VWS V14.01,2013-12-14 11:12:00,
2013-12-14 06:17:00,30.2,9.9,30.21,SW,220,0.0,0.0,42,0.00,,---,0.00,VWS V14.01,2013-12-14 11:17:00,
2013-12-14 06:22:00,30.0,9.2,30.21,SW,220,0.0,0.0,41,0.00,,---,0.00,VWS V14.01,2013-12-14 11:22:00,
2013-12-14 06:27:00,30.0,9.7,30.24,SW,220,0.0,0.0,42,0.00,,---,0.00,VWS V14.01,2013-12-14 11:27:00,
2013-12-14 06:32:00,30.2,9.9,30.24,SW,220,0.0,0.0,42,0.00,,---,0.00,VWS V14.01,2013-12-14 11:32:00,
2013-12-14 06:37:00,30.2,9.4,30.24,SW,220,0.0,0.0,41,0.00,,---,0.00,VWS V14.01,2013-12-14 11:37:00,
2013-12-14 06:42:00,30.2,9.4,30.24,SW,220,0.0,0.0,41,0.00,,---,0.00,VWS V14.01,2013-12-14 11:42:00,
2013-12-14 06:47:00,30.2,9.4,30.24,SW,220,0.0,0.0,41,0.00,,---,0.00,VWS V14.01,2013-12-14 11:47:00,
2013-12-14 06:52:00,30.2,9.4,30.24,SW,220,0.0,0.0,41,0.00,,---,0.00,VWS V14.01,2013-12-14 11:52:00,
2013-12-14 06:57:00,30.2,8.8,30.24,SW,220,0.0,0.0,40,0.00,,---,0.00,VWS V14.01,2013-12-14 11:57:00,
2013-12-14 07:02:00,30.2,9.4,30.24,SW,220,0.0,0.0,41,0.00,,---,0.00,VWS V14.01,2013-12-14 12:02:00,
2013-12-14 07:07:00,30.2,9.4,30.24,SW,220,0.0,0.0,41,0.00,,---,0.00,VWS V14.01,2013-12-14 12:07:00,
2013-12-14 07:12:00,30.2,9.4,30.24,SW,220,0.0,0.0,41,0.00,,---,0.00,VWS V14.01,2013-12-14 12:12:00,
2013-12-14 07:17:00,30.2,8.8,30.24,SW,220,0.0,0.0,40,0.00,,---,0.00,VWS V14.01,2013-12-14 12:17:00,
2013-12-14 07:23:00,30.2,8.8,30.24,SW,220,0.0,0.0,40,0.00,,---,0.00,VWS V14.01,2013-12-14 12:23:00,
2013-12-14 07:28:00,30.4,9.0,30.21,SW,220,0.0,0.0,40,0.00,,---,0.00,VWS V14.01,2013-12-14 12:28:00,
2013-12-14 07:33:00,30.6,9.1,30.21,SW,220,0.0,0.0,40,0.00,,---,0.00,VWS V14.01,2013-12-14 12:33:00,
2013-12-14 07:38:00,30.6,9.1,30.21,SW,220,0.0,0.0,40,0.00,,---,0.00,VWS V14.01,2013-12-14 12:38:00,
2013-12-14 07:43:00,30.7,8.7,30.21,SW,220,0.0,0.0,39,0.00,,---,0.00,VWS V14.01,2013-12-14 12:43:00,
2013-12-14 07:48:00,30.7,8.1,30.24,SW,220,0.0,0.0,38,0.00,,---,0.00,VWS V14.01,2013-12-14 12:48:00,
2013-12-14 07:53:00,30.9,8.3,30.24,SW,220,0.0,0.0,38,0.00,,---,0.00,VWS V14.01,2013-12-14 12:53:00,
2013-12-14 07:58:00,30.7,7.0,30.24,SW,220,0.0,0.0,36,0.00,,---,0.00,VWS V14.01,2013-12-14 12:58:00,
2013-12-14 08:03:00,30.6,5.5,30.24,SW,220,0.0,0.0,34,0.00,,---,0.00,VWS V14.01,2013-12-14 13:03:00,
2013-12-14 08:08:00,30.6,3.5,30.24,SW,220,0.0,0.0,31,0.00,,---,0.00,VWS V14.01,2013-12-14 13:08:00,
2013-12-14 08:13:00,30.7,3.7,30.24,SW,220,0.0,0.0,31,0.00,,---,0.00,VWS V14.01,2013-12-14 13:13:00,
2013-12-14 08:18:00,31.1,4.0,30.24,SW,220,0.0,0.0,31,0.00,,---,0.00,VWS V14.01,2013-12-14 13:18:00,
2013-12-14 08:23:00,31.3,4.9,30.24,SW,220,0.0,0.0,32,0.00,,---,0.00,VWS V14.01,2013-12-14 13:23:00,
2013-12-14 08:28:00,31.5,5.0,30.24,NNE,12,0.0,2.7,32,0.00,,---,0.00,VWS V14.01,2013-12-14 13:28:00,
2013-12-14 08:33:00,31.6,4.5,30.24,NE,41,0.0,0.0,31,0.00,,---,0.00,VWS V14.01,2013-12-14 13:33:00,
2013-12-14 08:38:00,31.8,0.0,30.24,NNE,27,0.0,0.0,25,0.00,,---,0.00,VWS V14.01,2013-12-14 13:38:00,
2013-12-14 08:43:00,32.0,0.2,30.24,NNE,27,0.0,0.0,25,0.00,,---,0.00,VWS V14.01,2013-12-14 13:43:00,
2013-12-14 08:48:00,32.2,0.3,30.24,NNE,27,2.7,2.7,25,0.00,,---,0.00,VWS V14.01,2013-12-14 13:48:00,
2013-12-14 08:53:00,32.4,-1.3,30.24,NNE,27,0.0,0.0,23,0.00,,---,0.00,VWS V14.01,2013-12-14 13:53:00,
2013-12-14 08:58:00,32.5,-1.1,30.24,NNE,27,0.0,0.0,23,0.00,,---,0.00,VWS V14.01,2013-12-14 13:58:00,
2013-12-14 09:03:00,32.7,-1.0,30.24,NNE,27,0.0,2.7,23,0.00,,---,0.00,VWS V14.01,2013-12-14 14:03:00,
2013-12-14 09:08:00,33.1,-3.6,30.24,NE,41,3.1,3.1,20,0.00,,---,0.00,VWS V14.01,2013-12-14 14:08:00,
2013-12-14 09:12:00,33.4,-3.3,30.24,NNE,27,4.0,4.0,20,0.00,,---,0.00,VWS V14.01,2013-12-14 14:12:00,
2013-12-14 09:17:00,33.6,-3.2,30.24,NNE,22,2.7,4.5,20,0.00,,---,0.00,VWS V14.01,2013-12-14 14:17:00,
2013-12-14 09:23:00,33.8,-3.0,30.24,NNE,22,2.7,2.7,20,0.00,,---,0.00,VWS V14.01,2013-12-14 14:23:00,
2013-12-14 09:28:00,34.0,-6.2,30.24,NE,34,2.7,4.0,17,0.00,,---,0.00,VWS V14.01,2013-12-14 14:28:00,
2013-12-14 09:33:00,34.3,-5.9,30.24,North,5,0.0,2.2,17,0.00,,---,0.00,VWS V14.01,2013-12-14 14:33:00,
2013-12-14 09:37:00,34.5,-5.8,30.24,NNE,28,3.6,3.6,17,0.00,,---,0.00,VWS V14.01,2013-12-14 14:37:00,
2013-12-14 09:42:00,34.7,-5.6,30.24,NNE,28,0.0,2.7,17,0.00,,---,0.00,VWS V14.01,2013-12-14 14:42:00,
2013-12-14 09:48:00,35.1,-5.3,30.24,NNE,28,0.0,2.2,17,0.00,,---,0.00,VWS V14.01,2013-12-14 14:48:00,
2013-12-14 09:53:00,35.1,-5.3,30.24,North,353,3.1,3.6,17,0.00,,---,0.00,VWS V14.01,2013-12-14 14:53:00,
2013-12-14 09:57:00,35.4,-5.1,30.24,NNE,15,0.0,2.7,17,0.00,,---,0.00,VWS V14.01,2013-12-14 14:57:00,
2013-12-14 10:02:00,35.4,-5.1,30.24,NNE,30,0.0,0.0,17,0.00,,---,0.00,VWS V14.01,2013-12-14 15:02:00,
2013-12-14 10:07:00,35.6,-4.9,30.24,NNE,30,0.0,3.1,17,0.00,,---,0.00,VWS V14.01,2013-12-14 15:07:00,
2013-12-14 10:13:00,35.6,-4.9,30.24,NNE,24,2.2,4.0,17,0.00,,---,0.00,VWS V14.01,2013-12-14 15:13:00,
2013-12-14 10:18:00,35.8,-4.8,30.24,NE,46,0.0,0.0,17,0.00,,---,0.00,VWS V14.01,2013-12-14 15:18:00,
2013-12-14 10:23:00,36.0,-4.6,30.24,NNE,23,0.0,0.0,17,0.00,,---,0.00,VWS V14.01,2013-12-14 15:23:00,
2013-12-14 10:28:00,36.1,-4.5,30.24,NNE,23,0.0,0.0,17,0.00,,---,0.00,VWS V14.01,2013-12-14 15:28:00,
2013-12-14 10:33:00,36.3,-4.3,30.24,NNE,23,2.7,2.7,17,0.00,,---,0.00,VWS V14.01,2013-12-14 15:33:00,
2013-12-14 10:37:00,36.3,-4.3,30.24,NNE,23,0.0,0.0,17,0.04,,---,0.04,VWS V14.01,2013-12-14 15:37:00,
2013-12-14 10:42:00,36.5,-4.2,30.21,NNE,23,2.7,2.7,17,0.04,,---,0.04,VWS V14.01,2013-12-14 15:42:00,
2013-12-14 10:47:00,36.7,-4.0,30.21,NNE,21,4.9,5.4,17,0.04,,---,0.04,VWS V14.01,2013-12-14 15:47:00,
2013-12-14 10:53:00,36.7,-4.0,30.21,NNE,21,2.7,4.0,17,0.04,,---,0.04,VWS V14.01,2013-12-14 15:53:00,
2013-12-14 10:58:00,36.9,-3.9,30.21,NE,51,2.7,5.4,17,0.04,,---,0.04,VWS V14.01,2013-12-14 15:58:00,
2013-12-14 11:03:00,37.0,-3.7,30.21,North,3,2.7,5.4,17,0.04,,---,0.04,VWS V14.01,2013-12-14 16:03:00,
2013-12-14 11:08:00,37.2,-3.6,30.21,NNE,18,2.2,3.1,17,0.04,,---,0.04,VWS V14.01,2013-12-14 16:08:00,
2013-12-14 11:13:00,37.4,-4.7,30.18,NNE,17,2.2,2.2,16,0.04,,---,0.04,VWS V14.01,2013-12-14 16:13:00,
2013-12-14 11:18:00,37.6,-4.5,30.18,SSE,164,0.0,0.0,16,0.04,,---,0.04,VWS V14.01,2013-12-14 16:18:00,
2013-12-14 11:23:00,37.9,-4.2,30.18,East,97,0.0,0.0,16,0.04,,---,0.04,VWS V14.01,2013-12-14 16:23:00,
2013-12-14 11:28:00,38.3,-4.0,30.18,SW,214,0.0,0.0,16,0.04,,---,0.04,VWS V14.01,2013-12-14 16:28:00,
2013-12-14 11:33:00,38.7,-3.7,30.18,SW,214,0.0,0.0,16,0.04,,---,0.04,VWS V14.01,2013-12-14 16:33:00,
2013-12-14 11:38:00,39.2,-3.2,30.18,North,353,3.6,4.0,16,0.00,,---,0.04,VWS V14.01,2013-12-14 16:38:00,
2013-12-14 11:43:00,39.6,-2.9,30.18,North,4,2.2,2.7,16,0.00,,---,0.04,VWS V14.01,2013-12-14 16:43:00,
2013-12-14 11:48:00,39.7,-2.8,30.18,ENE,59,2.2,4.0,16,0.00,,---,0.04,VWS V14.01,2013-12-14 16:48:00,
2013-12-14 11:53:00,39.9,-2.6,30.18,ENE,59,0.0,0.0,16,0.00,,---,0.04,VWS V14.01,2013-12-14 16:53:00,
2013-12-14 11:58:00,39.9,-2.6,30.15,NE,34,0.0,0.0,16,0.00,,---,0.04,VWS V14.01,2013-12-14 16:58:00,
2013-12-14 12:03:00,39.9,-2.6,30.15,NNE,16,0.0,0.0,16,0.00,,---,0.04,VWS V14.01,2013-12-14 17:03:00,
2013-12-14 12:08:00,39.9,-2.6,30.15,ENE,57,3.6,3.6,16,0.00,,---,0.04,VWS V14.01,2013-12-14 17:08:00,
2013-12-14 12:13:00,39.9,-2.6,30.15,NNE,27,3.1,4.0,16,0.00,,---,0.04,VWS V14.01,2013-12-14 17:13:00,
2013-12-14 12:18:00,40.1,-2.5,30.15,NNE,27,0.0,0.0,16,0.00,,---,0.04,VWS V14.01,2013-12-14 17:18:00,
2013-12-14 12:23:00,40.3,-2.3,30.15,NNE,27,0.0,2.2,16,0.00,,---,0.04,VWS V14.01,2013-12-14 17:23:00,
2013-12-14 12:28:00,40.3,-2.3,30.15,NE,48,3.6,5.4,16,0.00,,---,0.04,VWS V14.01,2013-12-14 17:28:00,
2013-12-14 12:33:00,40.6,-2.0,30.12,NE,36,3.6,5.8,16,0.00,,---,0.04,VWS V14.01,2013-12-14 17:33:00,
2013-12-14 12:38:00,40.6,-2.0,30.12,NNE,24,2.7,4.0,16,0.00,,---,0.04,VWS V14.01,2013-12-14 17:38:00,
2013-12-14 12:43:00,40.6,-2.0,30.12,East,98,2.7,4.0,16,0.00,,---,0.04,VWS V14.01,2013-12-14 17:43:00,
2013-12-14 12:48:00,40.8,-1.9,30.12,NE,53,5.8,6.3,16,0.00,,---,0.04,VWS V14.01,2013-12-14 17:48:00,
2013-12-14 12:53:00,41.0,-1.7,30.12,North,357,5.4,5.4,16,0.00,,---,0.04,VWS V14.01,2013-12-14 17:53:00,
2013-12-14 12:58:00,41.0,-1.7,30.12,North,8,2.7,3.1,16,0.00,,---,0.04,VWS V14.01,2013-12-14 17:58:00,
2013-12-14 13:03:00,41.2,-1.6,30.12,East,87,3.1,8.1,16,0.00,,---,0.04,VWS V14.01,2013-12-14 18:03:00,
2013-12-14 13:08:00,41.2,-1.6,30.12,NNE,23,2.2,3.6,16,0.00,,---,0.04,VWS V14.01,2013-12-14 18:08:00,
2013-12-14 13:13:00,41.2,-1.6,30.12,NE,45,4.5,4.5,16,0.00,,---,0.04,VWS V14.01,2013-12-14 18:13:00,
2013-12-14 13:18:00,41.2,-1.6,30.12,NNE,27,6.3,6.3,16,0.00,,---,0.04,VWS V14.01,2013-12-14 18:18:00,
2013-12-14 13:23:00,41.2,-1.6,30.12,NE,54,4.0,4.9,16,0.00,,---,0.04,VWS V14.01,2013-12-14 18:23:00,
2013-12-14 13:28:00,41.2,-1.6,30.09,ENE,71,3.6,3.6,16,0.00,,---,0.04,VWS V14.01,2013-12-14 18:28:00,
2013-12-14 13:33:00,41.2,-1.6,30.09,ENE,60,0.0,3.6,16,0.00,,---,0.04,VWS V14.01,2013-12-14 18:33:00,
2013-12-14 13:38:00,41.0,-1.7,30.09,NE,42,4.0,5.8,16,0.00,,---,0.04,VWS V14.01,2013-12-14 18:38:00,
2013-12-14 13:43:00,41.2,-1.6,30.09,NE,40,2.7,3.1,16,0.00,,---,0.04,VWS V14.01,2013-12-14 18:43:00,
2013-12-14 13:48:00,41.2,-1.6,30.09,North,0,4.9,4.9,16,0.00,,---,0.04,VWS V14.01,2013-12-14 18:48:00,
2013-12-14 13:53:00,41.2,-1.6,30.09,NNE,24,2.7,2.7,16,0.00,,---,0.04,VWS V14.01,2013-12-14 18:53:00,
2013-12-14 13:58:00,41.2,-1.6,30.09,ENE,58,0.0,2.7,16,0.00,,---,0.04,VWS V14.01,2013-12-14 18:58:00,
2013-12-14 14:03:00,41.2,0.9,30.09,NE,40,4.9,4.9,18,0.00,,---,0.04,VWS V14.01,2013-12-14 19:03:00,
2013-12-14 14:08:00,41.0,0.8,30.09,ENE,63,4.0,4.0,18,0.04,,---,0.08,VWS V14.01,2013-12-14 19:08:00,
2013-12-14 14:13:00,40.8,3.9,30.09,NE,39,2.2,2.7,21,0.04,,---,0.08,VWS V14.01,2013-12-14 19:13:00,
2013-12-14 14:18:00,40.6,8.4,30.09,NNE,31,4.9,4.9,26,0.04,,---,0.08,VWS V14.01,2013-12-14 19:18:00,
2013-12-14 14:23:00,40.5,11.5,30.09,NNE,25,2.7,3.1,30,0.04,,---,0.08,VWS V14.01,2013-12-14 19:23:00,
2013-12-14 14:28:00,40.3,12.1,30.09,North,9,0.0,0.0,31,0.04,,---,0.08,VWS V14.01,2013-12-14 19:28:00,
2013-12-14 14:33:00,40.3,12.8,30.09,NE,39,2.7,4.0,32,0.04,,---,0.08,VWS V14.01,2013-12-14 19:33:00,
2013-12-14 14:38:00,40.1,13.3,30.09,NE,53,0.0,0.0,33,0.04,,---,0.08,VWS V14.01,2013-12-14 19:38:00,
2013-12-14 14:43:00,40.1,14.7,30.06,North,353,0.0,0.0,35,0.04,,---,0.08,VWS V14.01,2013-12-14 19:43:00,
2013-12-14 14:48:00,40.1,17.7,30.06,NNE,19,0.0,2.7,40,0.04,,---,0.08,VWS V14.01,2013-12-14 19:48:00,
2013-12-14 14:53:00,39.9,17.6,30.06,NE,34,0.0,0.0,40,0.08,,---,0.12,VWS V14.01,2013-12-14 19:53:00,
2013-12-14 14:58:00,39.9,19.2,30.06,North,8,2.2,2.7,43,0.08,,---,0.12,VWS V14.01,2013-12-14 19:58:00,
2013-12-14 15:03:00,39.9,19.8,30.06,NNE,27,3.1,4.0,44,0.08,,---,0.12,VWS V14.01,2013-12-14 20:03:00,
2013-12-14 15:08:00,39.9,20.3,30.06,NNW,338,0.0,2.7,45,0.04,,---,0.12,VWS V14.01,2013-12-14 20:08:00,
2013-12-14 15:13:00,39.7,20.1,30.06,North,5,0.0,0.0,45,0.04,,---,0.12,VWS V14.01,2013-12-14 20:13:00,
2013-12-14 15:18:00,39.7,21.2,30.06,NNW,338,0.0,0.0,47,0.04,,---,0.12,VWS V14.01,2013-12-14 20:18:00,
2013-12-14 15:23:00,39.7,21.2,30.06,North,4,0.0,3.1,47,0.04,,---,0.12,VWS V14.01,2013-12-14 20:23:00,
2013-12-14 15:28:00,39.6,20.5,30.06,NE,36,0.0,0.0,46,0.04,,---,0.12,VWS V14.01,2013-12-14 20:28:00,
2013-12-14 15:33:00,39.6,20.5,30.06,NE,36,0.0,0.0,46,0.04,,---,0.12,VWS V14.01,2013-12-14 20:33:00,
2013-12-14 15:38:00,39.6,20.5,30.06,NE,36,0.0,0.0,46,0.04,,---,0.12,VWS V14.01,2013-12-14 20:38:00,
2013-12-14 15:43:00,39.4,20.8,30.03,NE,36,0.0,0.0,47,0.08,,---,0.16,VWS V14.01,2013-12-14 20:43:00,
2013-12-14 15:48:00,39.2,21.2,30.03,NE,36,0.0,0.0,48,0.08,,---,0.16,VWS V14.01,2013-12-14 20:48:00,
2013-12-14 15:53:00,39.2,21.7,30.03,NE,36,0.0,0.0,49,0.04,,---,0.16,VWS V14.01,2013-12-14 20:53:00,
2013-12-14 15:58:00,39.4,21.8,30.03,NE,36,0.0,0.0,49,0.04,,---,0.16,VWS V14.01,2013-12-14 20:58:00,
2013-12-14 16:03:00,39.2,21.7,30.03,NE,36,0.0,0.0,49,0.04,,---,0.16,VWS V14.01,2013-12-14 21:03:00,
2013-12-14 16:08:00,39.4,21.8,30.03,NE,36,0.0,0.0,49,0.08,,---,0.20,VWS V14.01,2013-12-14 21:08:00,
2013-12-14 16:13:00,39.4,21.8,30.03,NE,36,0.0,0.0,49,0.08,,---,0.20,VWS V14.01,2013-12-14 21:13:00,
2013-12-14 16:18:00,39.2,22.1,30.03,NE,36,0.0,0.0,50,0.08,,---,0.20,VWS V14.01,2013-12-14 21:18:00,
2013-12-14 16:23:00,39.2,22.6,30.03,NE,36,2.7,3.1,51,0.08,,---,0.20,VWS V14.01,2013-12-14 21:23:00,
2013-12-14 16:28:00,39.2,22.6,30.00,NNE,28,2.2,2.2,51,0.08,,---,0.20,VWS V14.01,2013-12-14 21:28:00,
2013-12-14 16:33:00,39.2,23.5,30.00,NNE,28,0.0,0.0,53,0.12,,---,0.24,VWS V14.01,2013-12-14 21:33:00,
2013-12-14 16:38:00,39.2,23.5,30.00,NNE,25,0.0,0.0,53,0.12,,---,0.24,VWS V14.01,2013-12-14 21:38:00,
2013-12-14 16:43:00,39.2,24.4,30.00,North,357,0.0,0.0,55,0.08,,---,0.24,VWS V14.01,2013-12-14 21:43:00,
2013-12-14 16:48:00,39.2,24.8,30.00,North,357,0.0,0.0,56,0.08,,---,0.24,VWS V14.01,2013-12-14 21:48:00,
2013-12-14 16:53:00,39.4,25.4,30.00,NNE,21,0.0,0.0,57,0.12,,---,0.28,VWS V14.01,2013-12-14 21:53:00,
2013-12-14 16:58:00,39.7,27.4,29.97,NNE,21,0.0,2.7,61,0.12,,---,0.28,VWS V14.01,2013-12-14 21:58:00,
2013-12-14 17:03:00,40.3,28.7,29.97,NNE,21,0.0,0.0,63,0.12,,---,0.28,VWS V14.01,2013-12-14 22:03:00,
2013-12-14 17:08:00,40.6,30.5,29.97,NE,53,0.0,2.7,67,0.08,,---,0.28,VWS V14.01,2013-12-14 22:08:00,
2013-12-14 17:13:00,40.8,31.5,29.97,North,353,0.0,0.0,69,0.12,,---,0.31,VWS V14.01,2013-12-14 22:13:00,
2013-12-14 17:18:00,40.5,29.3,29.97,East,97,0.0,0.0,64,0.12,,---,0.31,VWS V14.01,2013-12-14 22:18:00,
2013-12-14 17:24:00,40.5,30.4,29.97,NE,38,0.0,0.0,67,0.12,,---,0.31,VWS V14.01,2013-12-14 22:24:00,
2013-12-14 17:29:00,40.6,30.5,29.97,South,182,0.0,2.7,67,0.12,,---,0.31,VWS V14.01,2013-12-14 22:29:00,
2013-12-14 17:34:00,40.6,31.3,29.97,South,182,0.0,0.0,69,0.12,,---,0.35,VWS V14.01,2013-12-14 22:34:00,
2013-12-14 17:39:00,40.5,30.8,29.97,South,182,0.0,0.0,68,0.12,,---,0.35,VWS V14.01,2013-12-14 22:39:00,
2013-12-14 17:44:00,40.3,30.6,29.94,South,182,0.0,0.0,68,0.12,,---,0.35,VWS V14.01,2013-12-14 22:44:00,
2013-12-14 17:49:00,40.1,30.4,29.94,South,182,0.0,0.0,68,0.16,,---,0.39,VWS V14.01,2013-12-14 22:49:00,
2013-12-14 17:54:00,40.1,30.8,29.94,South,182,0.0,0.0,69,0.16,,---,0.39,VWS V14.01,2013-12-14 22:54:00,
2013-12-14 17:59:00,40.1,31.5,29.94,South,182,0.0,0.0,71,0.12,,---,0.39,VWS V14.01,2013-12-14 22:59:00,
2013-12-14 18:04:00,40.1,31.8,29.94,South,182,0.0,0.0,72,0.16,,---,0.43,VWS V14.01,2013-12-14 23:04:00,
2013-12-14 18:09:00,39.9,32.0,29.94,South,182,0.0,0.0,73,0.16,,---,0.43,VWS V14.01,2013-12-14 23:09:00,
2013-12-14 18:14:00,39.9,31.6,29.94,South,182,0.0,0.0,72,0.16,,---,0.47,VWS V14.01,2013-12-14 23:14:00,
2013-12-14 18:19:00,39.9,32.0,29.94,South,182,0.0,0.0,73,0.16,,---,0.47,VWS V14.01,2013-12-14 23:19:00,
2013-12-14 18:24:00,39.9,32.3,29.94,South,182,0.0,0.0,74,0.24,,---,0.55,VWS V14.01,2013-12-14 23:24:00,
2013-12-14 18:29:00,39.9,32.7,29.91,South,182,0.0,0.0,75,0.24,,---,0.55,VWS V14.01,2013-12-14 23:29:00,
2013-12-14 18:34:00,39.9,32.7,29.91,South,182,0.0,0.0,75,0.20,,---,0.55,VWS V14.01,2013-12-14 23:34:00,
2013-12-14 18:39:00,40.1,33.2,29.91,South,182,0.0,0.0,76,0.20,,---,0.55,VWS V14.01,2013-12-14 23:39:00,
2013-12-14 18:44:00,40.3,33.3,29.88,South,182,0.0,0.0,76,0.20,,---,0.55,VWS V14.01,2013-12-14 23:44:00,
2013-12-14 18:49:00,40.1,33.2,29.88,ESE,109,0.0,3.1,76,0.16,,---,0.55,VWS V14.01,2013-12-14 23:49:00,
2013-12-14 18:54:00,40.5,33.8,29.88,NE,50,0.0,0.0,77,0.20,,---,0.59,VWS V14.01,2013-12-14 23:54:00,
2013-12-14 18:59:00,41.2,34.8,29.88,NE,50,0.0,0.0,78,0.20,,---,0.59,VWS V14.01,2013-12-14 23:59:00,
2013-12-14 19:04:00,41.7,35.4,29.88,NE,50,2.2,2.7,78,0.16,,---,0.59,VWS V14.01,2013-12-15 00:04:00,
2013-12-14 19:09:00,41.9,35.5,29.88,ENE,58,0.0,0.0,78,0.16,,---,0.59,VWS V14.01,2013-12-15 00:09:00,
2013-12-14 19:14:00,42.4,36.4,29.85,NE,46,0.0,0.0,79,0.20,,---,0.63,VWS V14.01,2013-12-15 00:14:00,
2013-12-14 19:19:00,42.8,36.8,29.85,NE,46,0.0,0.0,79,0.16,,---,0.63,VWS V14.01,2013-12-15 00:19:00,
2013-12-14 19:24:00,43.2,37.4,29.85,ENE,59,0.0,2.7,80,0.08,,---,0.63,VWS V14.01,2013-12-15 00:24:00,
2013-12-14 19:29:00,43.7,38.3,29.85,ESE,104,3.1,4.9,81,0.08,,---,0.63,VWS V14.01,2013-12-15 00:29:00,
2013-12-14 19:34:00,44.2,39.4,29.85,East,99,4.0,4.0,83,0.08,,---,0.63,VWS V14.01,2013-12-15 00:34:00,
2013-12-14 19:39:00,44.8,40.2,29.85,ENE,75,4.0,5.4,84,0.08,,---,0.63,VWS V14.01,2013-12-15 00:39:00,
2013-12-14 19:44:00,45.1,40.6,29.83,ENE,73,0.0,2.2,84,0.08,,---,0.63,VWS V14.01,2013-12-15 00:44:00,
2013-12-14 20:08:00,46.4,42.5,29.83,ESE,110,0.0,0.0,86,0.08,,---,0.67,VWS V14.01,2013-12-15 01:08:00,
2013-12-14 20:13:00,46.6,42.6,29.80,ESE,106,3.1,3.1,86,0.04,,---,0.67,VWS V14.01,2013-12-15 01:13:00,
2013-12-14 20:18:00,46.6,42.6,29.80,NE,54,2.2,2.2,86,0.04,,---,0.67,VWS V14.01,2013-12-15 01:18:00,
2013-12-14 20:23:00,46.8,43.1,29.80,ENE,64,3.1,3.1,87,0.04,,---,0.67,VWS V14.01,2013-12-15 01:23:00,
2013-12-14 20:28:00,46.9,43.3,29.80,NNE,29,0.0,0.0,87,0.08,,---,0.71,VWS V14.01,2013-12-15 01:28:00,
2013-12-14 20:33:00,46.9,43.6,29.80,NE,55,0.0,0.0,88,0.08,,---,0.71,VWS V14.01,2013-12-15 01:33:00,
2013-12-14 20:38:00,47.1,43.8,29.80,ENE,73,3.6,3.6,88,0.08,,---,0.71,VWS V14.01,2013-12-15 01:38:00,
2013-12-14 20:43:00,46.9,43.6,29.77,ENE,61,3.1,3.1,88,0.08,,---,0.71,VWS V14.01,2013-12-15 01:43:00,
2013-12-14 20:48:00,46.9,43.9,29.77,NE,53,2.7,2.7,89,0.04,,---,0.71,VWS V14.01,2013-12-15 01:48:00,
2013-12-14 20:53:00,46.9,43.9,29.77,ENE,62,4.0,4.9,89,0.04,,---,0.71,VWS V14.01,2013-12-15 01:53:00,
2013-12-14 20:58:00,47.1,44.0,29.77,ENE,77,2.7,4.0,89,0.04,,---,0.71,VWS V14.01,2013-12-15 01:58:00,
2013-12-14 21:03:00,47.3,44.2,29.74,North,353,4.0,4.0,89,0.04,,---,0.71,VWS V14.01,2013-12-15 02:03:00,
2013-12-14 21:08:00,47.3,44.5,29.74,ESE,106,5.8,5.8,90,0.04,,---,0.71,VWS V14.01,2013-12-15 02:08:00,
2013-12-14 21:13:00,47.5,44.7,29.71,North,6,3.1,4.0,90,0.04,,---,0.71,VWS V14.01,2013-12-15 02:13:00,
2013-12-14 21:18:00,47.7,44.9,29.71,ENE,64,4.0,4.0,90,0.08,,---,0.75,VWS V14.01,2013-12-15 02:18:00,
2013-12-14 21:23:00,47.8,45.3,29.71,ESE,123,3.6,4.9,91,0.08,,---,0.75,VWS V14.01,2013-12-15 02:23:00,
2013-12-14 21:28:00,47.8,45.3,29.71,ENE,71,4.0,4.9,91,0.04,,---,0.75,VWS V14.01,2013-12-15 02:28:00,
2013-12-14 21:33:00,48.2,45.7,29.71,East,90,2.2,3.1,91,0.04,,---,0.75,VWS V14.01,2013-12-15 02:33:00,
2013-12-14 21:38:00,48.2,45.7,29.71,East,91,2.7,3.6,91,0.04,,---,0.75,VWS V14.01,2013-12-15 02:38:00,
2013-12-14 21:43:00,48.4,45.9,29.68,NE,53,2.7,3.1,91,0.04,,---,0.75,VWS V14.01,2013-12-15 02:43:00,
2013-12-14 21:48:00,48.6,46.1,29.68,NE,47,3.6,6.3,91,0.08,,---,0.79,VWS V14.01,2013-12-15 02:48:00,
2013-12-14 21:53:00,48.7,46.2,29.68,NE,48,3.1,5.4,91,0.08,,---,0.79,VWS V14.01,2013-12-15 02:53:00,
2013-12-14 21:58:00,48.7,46.2,29.68,ENE,63,0.0,3.1,91,0.08,,---,0.79,VWS V14.01,2013-12-15 02:58:00,
2013-12-14 22:03:00,48.9,46.4,29.68,East,97,3.6,3.6,91,0.12,,---,0.83,VWS V14.01,2013-12-15 03:03:00,
2013-12-14 22:08:00,49.1,46.9,29.68,NE,48,3.6,6.3,92,0.12,,---,0.83,VWS V14.01,2013-12-15 03:08:00,
2013-12-14 22:13:00,49.3,47.1,29.65,SSE,148,3.6,3.6,92,0.12,,---,0.83,VWS V14.01,2013-12-15 03:13:00,
2013-12-14 22:18:00,49.5,47.2,29.65,NE,55,4.0,6.3,92,0.12,,---,0.87,VWS V14.01,2013-12-15 03:18:00,
2013-12-14 22:23:00,49.5,47.2,29.65,East,79,0.0,5.8,92,0.12,,---,0.87,VWS V14.01,2013-12-15 03:23:00,
2013-12-14 22:28:00,50.0,47.8,29.62,ENE,70,5.4,5.8,92,0.12,,---,0.87,VWS V14.01,2013-12-15 03:28:00,
2013-12-14 22:33:00,50.4,48.1,29.62,NNW,331,5.4,7.2,92,0.12,,---,0.87,VWS V14.01,2013-12-15 03:33:00,
2013-12-14 22:38:00,50.5,48.6,29.62,NE,43,5.4,7.6,93,0.12,,---,0.87,VWS V14.01,2013-12-15 03:38:00,
2013-12-14 22:43:00,50.5,48.6,29.59,East,87,5.4,5.4,93,0.12,,---,0.87,VWS V14.01,2013-12-15 03:43:00,
2013-12-14 22:48:00,50.9,49.0,29.59,NE,36,4.9,5.8,93,0.08,,---,0.87,VWS V14.01,2013-12-15 03:48:00,
2013-12-14 22:53:00,51.1,49.1,29.59,ESE,105,4.0,4.0,93,0.12,,---,0.91,VWS V14.01,2013-12-15 03:53:00,
2013-12-14 22:58:00,51.3,49.3,29.56,East,87,3.1,4.0,93,0.12,,---,0.91,VWS V14.01,2013-12-15 03:58:00,
2013-12-14 23:03:00,51.4,49.5,29.56,ENE,76,3.6,4.0,93,0.08,,---,0.91,VWS V14.01,2013-12-15 04:03:00,
2013-12-14 23:08:00,52.0,50.0,29.56,East,89,4.0,4.0,93,0.12,,---,0.94,VWS V14.01,2013-12-15 04:08:00,
2013-12-14 23:13:00,52.7,51.0,29.53,East,85,6.3,6.3,94,0.12,,---,0.94,VWS V14.01,2013-12-15 04:13:00,
2013-12-14 23:18:00,53.2,51.6,29.53,East,94,3.1,5.8,94,0.12,,---,0.98,VWS V14.01,2013-12-15 04:18:00,
2013-12-14 23:23:00,54.1,52.5,29.53,East,101,4.0,10.1,94,0.12,,---,0.98,VWS V14.01,2013-12-15 04:23:00,
2013-12-14 23:28:00,54.7,53.0,29.53,East,93,5.8,5.8,94,0.16,,---,1.02,VWS V14.01,2013-12-15 04:28:00,
2013-12-14 23:33:00,55.2,53.5,29.53,East,82,5.8,5.8,94,0.20,,---,1.06,VWS V14.01,2013-12-15 04:33:00,
2013-12-14 23:38:00,55.4,53.7,29.53,East,83,3.1,4.9,94,0.24,,---,1.10,VWS V14.01,2013-12-15 04:38:00,
2013-12-14 23:43:00,55.8,54.1,29.50,ENE,76,4.9,5.4,94,0.31,,---,1.18,VWS V14.01,2013-12-15 04:43:00,
2013-12-14 23:48:00,55.9,54.2,29.50,ENE,70,0.0,3.6,94,0.47,,---,1.34,VWS V14.01,2013-12-15 04:48:00,
2013-12-14 23:53:00,56.5,55.1,29.50,East,93,2.7,2.7,95,0.47,,---,1.38,VWS V14.01,2013-12-15 04:53:00,
2013-12-14 23:58:00,56.7,55.2,29.47,East,92,10.1,10.1,95,0.51,,---,1.42,VWS V14.01,2013-12-15 04:58:00,